Date,TemperatureHighF,TemperatureAvgF,TemperatureLowF,DewpointHighF,DewpointAvgF,DewpointLowF,HumidityHigh,HumidityAvg,HumidityLow,PressureMaxIn,PressureMinIn,WindSpeedMaxMPH,WindSpeedAvgMPH,GustSpeedMaxMPH,PrecipitationSumIn
2013-3-1,50.7,41.9,34.7,34.8,30.2,24.8,80,64,48,30.18,30.08,11,2,0,0.00
2013-3-2,42.1,35.5,30.0,28.0,24.6,21.4,76,65,50,30.26,30.15,11,1,0,0.00
2013-3-3,52.5,39.5,26.2,31.0,24.6,19.8,78,57,36,30.28,30.10,6,0,0,0.00
2013-3-4,67.8,55.7,40.8,52.1,42.9,29.9,73,62,53,30.10,29.88,12,2,0,0.00
2013-3-5,69.3,59.8,46.6,58.9,47.6,29.2,80,65,46,30.22,29.89,14,3,0,0.02
2013-3-6,54.9,45.4,37.6,30.0,27.1,23.6,63,49,37,30.34,30.22,12,2,0,0.02
2013-3-7,63.0,48.2,34.5,37.2,32.1,26.7,74,55,35,30.37,30.23,8,0,0,0.00
2013-3-8,71.1,55.5,40.5,41.0,37.2,31.9,73,52,33,30.33,30.17,7,0,0,0.00
2013-3-9,72.3,62.7,53.8,54.9,47.6,39.6,75,58,44,30.18,29.96,14,2,0,0.00
2013-3-10,74.5,65.8,54.7,61.7,57.6,51.8,90,76,63,29.98,29.83,22,4,0,0.75
2013-3-11,54.3,48.3,41.9,51.1,41.3,35.8,91,78,54,30.04,29.89,19,4,0,1.90
2013-3-12,61.0,49.6,38.1,38.2,35.0,32.2,80,60,37,30.25,30.03,13,2,0,0.02
2013-3-13,58.8,50.7,43.9,36.8,29.4,22.2,71,47,25,30.41,30.24,19,4,0,0.00
2013-3-14,67.1,52.1,38.1,39.3,32.1,26.3,65,48,33,30.45,30.27,10,1,0,0.00
2013-3-15,73.6,63.4,51.4,47.9,44.0,38.4,65,50,39,30.28,30.09,17,4,0,0.00
2013-3-16,75.0,66.0,56.8,54.0,50.6,46.6,71,58,47,30.09,29.92,18,4,0,0.00
2013-3-17,78.8,66.1,54.9,62.0,55.7,48.2,84,70,52,29.98,29.80,12,1,0,0.02
2013-3-18,83.5,63.2,59.7,99.9,66.2,54.9,87,65,52,29.96,29.74,18,4,0,0.22
2013-3-19,70.3,58.6,46.8,54.4,40.7,36.3,84,55,32,30.09,29.97,16,5,0,0.22
2013-3-20,63.9,56.1,49.6,38.5,32.9,25.7,58,43,27,30.19,30.04,15,3,0,0.00
2013-3-21,66.2,53.9,43.5,38.1,31.3,24.3,55,43,32,30.09,29.86,11,2,0,0.00
2013-3-22,59.9,55.8,49.6,51.8,46.4,38.1,87,71,50,29.92,29.80,16,4,0,0.10
2013-3-23,70.2,64.5,58.6,64.0,59.7,51.3,90,84,76,29.86,29.59,14,1,0,0.22
2013-3-24,64.6,54.9,41.4,61.3,45.2,27.9,90,72,44,30.03,29.62,22,5,0,0.26
2013-3-25,52.2,42.7,32.9,27.8,25.0,22.3,73,51,34,30.28,30.04,17,4,0,0.02
2013-3-26,49.6,41.4,34.3,26.8,24.9,22.8,65,53,39,30.39,30.28,15,3,0,0.00
2013-3-27,59.5,46.1,33.1,34.5,28.6,24.9,73,52,34,30.44,30.27,8,0,0,0.00
2013-3-28,68.7,55.8,40.3,40.4,35.4,29.4,72,48,29,30.37,30.22,8,0,0,0.00
2013-3-29,75.9,63.5,48.0,50.6,44.9,38.5,72,52,38,30.30,30.17,14,1,0,0.00
2013-3-30,76.3,67.2,57.6,55.2,52.6,48.2,72,60,47,30.19,29.99,20,3,0,0.00
2013-3-31,73.0,64.0,57.6,59.8,56.0,53.3,90,76,62,30.04,29.83,16,2,0,0.29